EST,Max TemperatureF,Mean TemperatureF,Min TemperatureF,Max Dew PointF,MeanDew PointF,Min DewpointF,Max Humidity, Mean Humidity, Min Humidity, Max Sea Level PressureIn, Mean Sea Level PressureIn, Min Sea Level PressureIn, Max VisibilityMiles, Mean VisibilityMiles, Min VisibilityMiles, Max Wind SpeedMPH, Mean Wind SpeedMPH, Max Gust SpeedMPH,PrecipitationIn, CloudCover, Events, WindDirDegrees
2014-2-1,41,37,33,30,25,19,87,64,42,30.36,30.26,30.06,10,10,10,12,8,16,0.08,2,,235
2014-2-2,44,40,35,39,36,30,100,87,75,30.04,29.95,29.88,10,8,0,13,8,,0.38,7,,222
2014-2-3,39,36,32,36,30,23,100,82,65,30.28,30.16,30.04,10,7,1,21,11,25,0.15,7,,27
2014-2-4,33,30,26,28,23,18,93,71,55,30.45,30.38,30.27,10,10,10,13,8,17,0.04,2,,336
2014-2-5,35,30,26,34,29,23,100,89,80,30.33,29.92,29.60,10,7,0,26,10,37,0.00,7,,72
2014-2-6,30,22,14,25,19,9,93,76,64,30.24,30.16,29.90,10,9,3,20,12,28,0.07,6,,337
2014-2-7,30,26,23,18,13,9,64,54,43,30.26,30.21,30.16,10,10,10,18,14,25,0.08,1,,275
2014-2-8,28,24,21,18,10,5,69,50,43,30.29,30.21,30.11,10,10,10,22,13,28,0.16,1,,280
2014-2-9,30,28,26,27,21,10,93,74,47,30.13,30.06,29.96,10,8,0,16,7,22,0.15,7,,26
2014-2-10,28,26,24,27,15,7,93,64,46,30.19,30.02,29.89,10,10,2,23,15,30,0.12,7,,306
2014-2-11,24,22,19,10,8,5,63,53,46,30.39,30.28,30.19,10,10,10,22,12,29,0.43,4,,314
2014-2-12,26,20,14,16,11,5,93,68,55,30.55,30.48,30.40,10,10,10,23,12,30,0.22,4,,2
2014-2-13,42,30,19,43,33,12,100,89,74,30.42,29.81,28.94,10,6,1,30,10,39,0.08,7,,75
2014-2-14,42,37,32,41,29,19,100,78,52,29.75,29.18,28.79,10,8,0,33,16,46,0.24,5,,255
2014-2-15,37,32,26,32,27,21,100,81,60,29.87,29.69,29.33,10,6,0,33,11,45,0.07,4,,11
2014-2-16,32,28,24,30,18,12,93,65,47,29.93,29.71,29.34,10,9,1,36,25,50,0.18,2,,297
2014-2-17,26,22,19,12,9,7,68,53,43,30.35,30.19,29.94,10,10,10,28,21,37,0.33,0,,325
2014-2-18,37,24,12,36,22,7,100,80,54,30.36,30.12,29.81,10,9,1,25,7,34,0.33,5,,167
2014-2-19,41,32,24,39,29,19,100,83,60,30.11,29.91,29.66,10,8,1,22,14,30,0.18,4,,236
2014-2-20,46,40,33,32,30,25,93,73,43,30.23,30.13,29.83,10,10,5,18,12,23,0.13,2,,248
2014-2-21,50,42,33,50,40,32,100,95,87,30.19,29.94,29.71,10,5,0,22,11,31,0.66,8,Thunderstorm,129
2014-2-22,48,40,33,36,32,27,100,75,46,30.00,29.95,29.86,10,10,10,26,12,34,0.29,0,,231
2014-2-23,39,38,37,34,32,30,87,81,75,30.01,29.90,29.78,10,10,10,16,12,,0.02,3,,216
2014-2-24,42,34,26,34,17,7,81,50,37,29.93,29.80,29.72,10,10,10,29,14,40,0.42,5,,290
2014-2-25,28,26,23,10,8,5,54,47,40,29.99,29.94,29.87,10,10,10,24,18,37,0.34,4,,284
2014-2-26,32,26,19,19,8,0,74,51,38,29.94,29.86,29.77,10,10,6,20,12,28,0.51,1,,275
2014-2-27,30,20,10,23,9,0,92,56,37,29.86,29.75,29.61,10,9,1,28,11,39,0.34,2,,271
2014-2-28,24,16,8,7,0,-8,73,47,26,30.44,30.24,29.87,10,10,10,31,19,44,0.53,1,,294